Find Qianfan 05-12

NORAD ID: 63170 Int'l Des: 2025-046 Owner: YUANX Country: CN Constellation: spacesail operational
LEOCIRCULARPOLAR

当前视图

正在加载3D地球...

关于 Qianfan 05-12

正在加载描述...

即将过境

Passes for default location (London). Set your location on the main map for personalized predictions.

高度历史

Loading altitude history...

两行轨道根数

1 63170U 25046M 26146.26996190 .00000148 00000-0 20994-3 0 9995
2 63170 88.9692 302.9937 0015981 17.0753 343.0933 13.51030970 69617
Epoch: May 26, 2026 • Age: 10 hours

当前状态

高度 1082.3 km
速度 7.31 km/s
星下点 3.32°N, 4.91°W
发射日期 Mar 11, 2025
运行时间 1.2 years
类型 internet

技术详情

分类 Payload
质量 267.00 kg
干质量 267.00 kg
总质量 267.00 kg
长度 0.30 m
直径 3.00 m
跨度 10.00 m
形状 Box+pan
制造商 GESIH
平台类型 Qianfan
阶段状态 In Orbit
所有者/国家 YUANX/CN

Most Searched